Overview Statistics Trail Chart Weather Telemetry Raw packets
 

This is the latest recevied weather packets stored in our database for station/object WW5JC. If no packets are shown the sender has not sent any weather packets the latest 10 day(s).

<< 48 49 50 51 52 53 54 >>
Time Temp. Humidity Pressure Rain* Wind** Luminosity Snow
1788299095 36.67° C 44% 1016 hPa 0 mm - 352 W/m² -
1788298790 36.67° C 43% 1016 hPa 0 mm - 370 W/m² -
1788298485 37.22° C 43% 1016.2 hPa 0 mm - 395 W/m² -
1788298184 36.67° C 44% 1016.1 hPa 0 mm - 415 W/m² -
1788297879 36.67° C 44% 1016.1 hPa 0 mm - 418 W/m² -
1788297576 36.11° C 44% 1016.2 hPa 0 mm - 442 W/m² -
1788297271 36.11° C 44% 1016.2 hPa 0 mm - 473 W/m² -
1788296967 36.67° C 44% 1016.3 hPa 0 mm - 119 W/m² -
1788296667 36.67° C 44% 1016.4 hPa 0 mm - 489 W/m² -
1788296359 37.22° C 42% 1016.6 hPa 0 mm - 493 W/m² -
1788296053 37.22° C 42% 1016.5 hPa 0 mm - 509 W/m² -
1788295748 37.22° C 44% 1016.4 hPa 0 mm - 510 W/m² -
1788295445 37.22° C 42% 1016.5 hPa 0 mm - 527 W/m² -
1788295144 36.67° C 44% 1016.4 hPa 0 mm - 534 W/m² -
1788294839 36.11° C 44% 1016.5 hPa 0 mm - 472 W/m² -
1788294534 36.11° C 43% 1016.7 hPa 0 mm - 558 W/m² -
1788294228 37.22° C 43% 1016.8 hPa 0 mm - 563 W/m² -
1788293925 36.67° C 43% 1016.7 hPa 0 mm - 570 W/m² -
1788293624 36.67° C 43% 1016.8 hPa 0 mm - 591 W/m² -
1788293318 36.67° C 43% 1016.7 hPa 0 mm - 589 W/m² -
1788293014 36.67° C 45% 1016.9 hPa 0 mm - 250 W/m² -
1788292712 36.67° C 44% 1016.9 hPa 0 mm - 612 W/m² -
1788292410 36.11° C 44% 1017.1 hPa 0 mm - 628 W/m² -
1788292107 36.11° C 45% 1017 hPa 0 mm - 640 W/m² -
1788291801 36.67° C 44% 1017 hPa 0 mm - 626 W/m² -

* Rain latest hour (hover to see other rain measurements)
** Current wind speed in m/s (hover to see current wind gust speed)